Weather History for Cape Girardeau, MO

Change the Weather History Date:

Sunday, April 7, 2013

  Actual Average Record
Temperature  
Mean Temperature 64 °F 54 °F  
Max Temperature 74 °F 66 °F 82 °F (1977)
Min Temperature 53 °F 42 °F 22 °F (2007)
Degree Days  
Heating Degree Days 1 11  
Month to date heating degree days 108 86  
Since 1 July heating degree days 4069 4142  
Cooling Degree Days 0 1  
Month to date cooling degree days 0 1  
Year to date cooling degree days 0 5  
Growing Degree Days 14 (Base 50)    
Moisture  
Dew Point 52 °F    
Average Humidity 65    
Maximum Humidity 78    
Minimum Humidity 52    
Precipitation  
Precipitation 0.00 in 0.13 in 1.13 in (2010)
Month to date precipitation 0.00 0.95  
Year to date precipitation 9.17 12.23  
Sea Level Pressure  
Sea Level Pressure 29.92 in    
Wind  
Wind Speed 11 mph (SSW)    
Max Wind Speed 23 mph    
Max Gust Speed 32 mph    
Visibility 10 miles    
Events      
T = Trace of Precipitation, MM = Missing Value Source: NWS Daily Summary

Daily Weather History Graph

Daily Weather History Graph

Search for Another Location

Airport:

Trip Planner

Search our weather history database for the weather conditions in past years. The results will help you decide how hot, cold, wet, or windy it might be!

Date:

Astronomy

Apr. 07, 2013 Rise Set
Actual Time 6:34 AM CDT 7:26 PM CDT
Civil Twilight 6:08 AM CDT 7:52 PM CDT
Nautical Twilight 5:36 AM CDT 8:24 PM CDT
Astronomical Twilight 5:04 AM CDT 8:56 PM CDT
Moon 4:48 AM CDT (4/7) 5:01 PM CDT (4/7)
Length of Visible Light 13h 44m
Length of Day
12h 51m
Waning Crescent, 8% of the Moon is Illuminated
Apr 7
Waning Crescent
Apr 10
New
Apr 18
First Quarter
Apr 25
Full
May 2
Last Quarter

Hourly Weather History & Observations

Time (CDT) Temp. Dew Point Humidity Pressure Visibility Wind Dir Wind Speed Gust Speed Precip Events Conditions
12:53 AM 62.1 °F 45.0 °F 53% 29.90 in 10.0 mi SSW 12.7 mph - N/A   Overcast
1:53 AM 61.0 °F 45.0 °F 56% 29.90 in 10.0 mi SSW 15.0 mph 21.9 mph N/A   Overcast
2:53 AM 60.1 °F 46.0 °F 60% 29.88 in 10.0 mi SSW 16.1 mph - N/A   Clear
3:53 AM 60.1 °F 46.0 °F 60% 29.88 in 10.0 mi SSW 13.8 mph - N/A   Clear
4:53 AM 57.9 °F 46.9 °F 67% 29.90 in 10.0 mi SW 6.9 mph - N/A   Clear
5:53 AM 57.0 °F 46.9 °F 69% 29.91 in 10.0 mi Calm Calm - N/A   Clear
6:53 AM 54.0 °F 46.9 °F 77% 29.93 in 10.0 mi SE 4.6 mph - N/A   Clear
7:53 AM 59.0 °F 51.1 °F 75% 29.95 in 10.0 mi SSW 4.6 mph - N/A   Mostly Cloudy
8:53 AM 62.1 °F 52.0 °F 70% 29.96 in 10.0 mi South 5.8 mph - N/A   Scattered Clouds
9:53 AM 64.0 °F 53.1 °F 67% 29.96 in 10.0 mi SSW 6.9 mph - N/A   Overcast
10:53 AM 66.9 °F 54.0 °F 63% 29.96 in 8.0 mi South 11.5 mph - N/A   Partly Cloudy
11:53 AM 70.0 °F 55.0 °F 59% 29.96 in 10.0 mi South 13.8 mph 18.4 mph N/A   Clear
12:53 PM 72.0 °F 55.9 °F 57% 29.94 in 10.0 mi South 11.5 mph 18.4 mph N/A   Clear
1:53 PM 73.0 °F 55.9 °F 55% 29.93 in 10.0 mi South 12.7 mph 20.7 mph N/A   Clear
2:53 PM 72.0 °F 55.0 °F 55% 29.92 in 10.0 mi South 13.8 mph 21.9 mph N/A   Mostly Cloudy
3:53 PM 73.0 °F 55.9 °F 55% 29.90 in 10.0 mi SSE 18.4 mph 23.0 mph N/A   Clear
4:53 PM 73.0 °F 55.9 °F 55% 29.89 in 10.0 mi South 16.1 mph 26.5 mph N/A   Clear
5:53 PM 71.1 °F 57.0 °F 61% 29.89 in 10.0 mi South 17.3 mph - N/A   Clear
6:53 PM 66.9 °F 55.0 °F 66% 29.90 in 10.0 mi South 15.0 mph - N/A   Clear
7:53 PM 64.9 °F 55.0 °F 70% 29.90 in 10.0 mi South 16.1 mph - N/A   Clear
8:53 PM 64.0 °F 54.0 °F 70% 29.91 in 10.0 mi South 11.5 mph - N/A   Clear
9:53 PM 63.0 °F 54.0 °F 72% 29.92 in 10.0 mi SSW 10.4 mph - N/A   Clear
10:53 PM 62.1 °F 54.0 °F 75% 29.91 in 10.0 mi South 6.9 mph - N/A   Clear
11:53 PM 61.0 °F 54.0 °F 78% 29.91 in 10.0 mi SSW 6.9 mph - N/A   Clear